RH
18 18 18 18 18 17 15 13 13 15 15 13 12 12 13 12 9 8 8 8 8 9 9 9 9 9 9 9 9 9 9 10 10 10 9 11 12 12 12 11 10 10 10 10 9 9 8 8 8 8 8 8 7 8 10 10 11 14 14 13 14 14 16 20 19 20 18 18 22 22 22 22 18 20 22 20 22 27 29 28 29 30 36 48 60 68 70 74
15 16 16 16 16 16 15 12 11 12 14 12 10 11 12 11 10 8 8 9 9 8 9 9 9 9 9 9 10 10 10 10 10 10 12 13 13 13 12 12 12 11 11 11 10 10 9 9 9 8 8 9 9 9 11 14 14 13 15 17 18 18 21 23 21 20 19 18 22 24 26 26 24 25 25 20 19 23 25 27 29 31 34 39 49 66 74 74
14 14 15 15 14 13 13 12 10 10 11 10 9 10 11 13 12 8 8 9 9 9 9 10 10 10 10 10 10 10 11 11 11 12 14 14 14 14 13 13 13 12 12 12 11 11 10 9 8 9 10 10 12 11 12 15 15 15 17 18 20 23 23 22 21 21 21 21 21 23 26 25 25 30 31 25 21 21 21 25 28 28 32 35 39 55 73 76
14 14 14 14 13 12 11 11 12 11 10 9 9 10 12 14 13 9 8 9 9 9 10 10 10 11 10 11 10 12 12 12 15 15 15 15 14 14 14 13 13 13 14 13 12 11 10 9 8 9 10 12 14 13 14 17 18 19 18 17 21 24 23 22 25 24 24 24 23 23 24 23 26 29 31 29 23 20 21 27 30 29 31 34 35 41 60 73
17 15 14 13 13 13 13 12 13 14 13 11 11 11 12 13 12 9 9 9 9 10 10 11 11 11 11 11 11 13 12 13 17 17 15 15 15 15 15 14 14 14 14 13 12 11 10 9 8 9 11 13 15 14 17 21 21 21 18 19 23 24 24 23 26 28 29 28 26 26 24 24 27 27 29 31 25 23 25 27 29 31 32 33 35 35 44 61
19 17 16 15 15 14 14 15 15 16 15 12 12 13 12 11 10 10 10 10 10 11 11 11 12 12 12 12 12 13 13 13 17 17 15 16 15 16 16 15 16 15 15 14 12 11 10 9 9 13 14 14 17 16 19 23 22 21 19 22 25 26 26 23 25 29 33 33 31 30 29 28 26 25 29 30 28 29 30 30 28 29 32 33 35 36 38 48
21 18 17 17 16 15 15 16 16 17 14 11 11 12 12 11 10 10 10 10 10 11 12 12 12 13 13 14 14 14 14 15 17 17 16 16 16 16 16 16 17 16 16 14 13 11 10 9 10 16 14 14 19 19 20 24 24 23 21 24 26 28 28 26 25 27 32 36 35 34 34 31 27 27 30 29 28 29 30 33 33 29 29 32 34 35 37 42
21 19 19 19 18 17 16 16 17 17 13 10 11 11 11 11 10 10 10 10 11 12 12 13 13 13 13 14 15 15 16 17 18 18 17 17 17 17 17 18 18 18 16 15 13 11 11 10 10 14 13 14 21 20 21 22 23 24 23 25 27 28 28 28 28 27 31 34 34 36 34 32 30 32 33 29 27 26 27 30 33 32 29 29 31 34 38 42
21 20 19 18 18 17 16 15 17 17 12 9 11 10 10 10 10 10 10 10 11 12 12 13 13 13 14 15 15 15 17 19 18 19 18 18 17 17 18 19 19 19 17 16 14 12 12 12 10 11 12 17 21 20 22 20 20 25 24 25 27 27 28 29 30 31 34 35 35 37 34 31 33 36 33 28 29 27 27 27 30 34 32 28 28 32 35 40
22 20 19 17 17 16 16 15 15 15 11 8 9 10 10 10 10 10 10 10 11 12 13 13 13 14 15 16 16 17 18 20 20 19 19 19 18 18 19 20 20 20 18 17 15 12 12 11 10 10 13 18 19 19 22 20 20 24 23 24 27 27 29 30 32 35 39 39 38 39 35 34 37 36 29 29 35 34 32 32 32 35 35 32 28 29 32 36
22 19 18 17 16 15 14 14 14 12 9 8 8 9 10 10 10 11 11 11 12 13 13 14 14 15 16 17 17 18 20 20 20 20 20 20 19 19 20 21 21 21 19 18 16 14 12 11 9 11 14 16 18 20 22 21 21 23 22 23 24 26 29 31 34 37 41 42 40 40 39 39 42 38 30 31 37 39 39 37 36 35 34 33 30 29 30 32
21 18 17 17 16 15 13 12 11 9 8 8 8 9 10 10 11 11 12 13 13 14 14 14 15 16 17 18 18 20 20 20 20 21 21 21 20 20 21 21 22 22 20 19 17 15 13 11 11 13 13 14 16 19 21 22 24 23 21 20 21 23 27 29 34 39 44 44 40 42 40 38 42 39 34 33 34 39 41 37 35 33 31 31 31 30 29 30
19 18 17 17 17 14 11 10 9 8 8 8 8 10 10 11 11 12 13 14 15 14 14 15 16 17 19 20 20 21 20 20 21 22 21 22 22 21 21 22 23 22 20 19 17 16 14 12 12 14 14 15 18 18 20 22 23 21 19 19 19 22 27 30 35 39 44 46 45 48 42 35 39 39 37 32 29 37 40 34 31 30 28 27 27 26 26 28
19 18 17 17 16 13 10 10 9 8 8 8 9 10 11 12 12 13 14 15 16 16 16 16 17 18 20 21 22 21 21 21 22 22 23 23 23 22 22 22 23 22 21 20 18 17 16 14 14 15 15 17 18 18 20 21 20 20 20 21 20 24 29 30 34 37 39 43 47 52 48 40 40 38 37 33 28 35 37 32 30 28 27 26 25 22 19 21
18 18 18 17 16 12 9 9 9 8 8 8 9 10 11 12 12 13 15 16 17 17 18 18 18 20 23 23 23 23 22 22 23 23 23 24 24 24 23 22 22 22 22 21 20 19 17 16 17 18 17 17 18 18 18 18 19 20 21 23 24 26 28 28 31 34 35 39 43 48 48 41 37 35 38 38 32 33 35 34 31 28 26 23 23 22 18 16
18 17 16 16 16 12 10 8 8 8 8 8 9 11 12 12 13 13 14 17 19 19 20 20 20 22 24 24 24 25 24 24 24 23 23 24 24 24 23 21 21 23 23 22 22 21 19 19 19 19 19 17 17 16 15 17 20 23 22 24 26 26 28 29 31 35 35 36 37 39 41 37 32 33 38 41 35 31 31 33 33 30 26 22 20 19 17 16
20 17 15 15 15 13 11 8 8 9 8 8 10 11 12 13 13 14 15 18 20 21 22 23 23 24 24 25 25 27 26 25 26 25 24 24 25 24 22 21 21 23 24 23 23 22 21 21 20 18 19 18 16 15 15 18 21 24 23 24 26 24 26 29 30 34 35 34 35 35 35 32 29 30 34 37 37 34 28 27 31 30 26 23 21 18 14 14
22 19 17 15 15 14 12 9 9 9 9 9 10 12 13 13 14 14 16 19 21 23 23 25 27 24 24 26 27 28 27 26 27 26 25 26 26 24 23 22 21 23 25 24 24 23 22 22 20 18 17 16 16 14 15 18 21 24 24 25 27 25 25 27 27 30 32 33 36 36 33 30 28 28 29 32 36 36 29 23 25 27 26 25 22 18 13 11
24 22 19 18 17 15 12 10 10 10 10 10 11 13 13 14 16 17 19 21 23 24 24 27 27 23 24 27 27 27 26 26 27 27 26 27 27 25 24 22 22 24 25 24 24 25 23 21 20 18 16 17 18 17 16 19 21 24 25 26 27 26 24 25 26 27 30 32 32 33 34 31 28 27 27 28 31 32 29 23 22 24 27 27 24 18 14 12
29 26 23 21 18 16 14 12 11 11 11 11 13 14 15 18 20 20 22 22 22 22 23 25 26 25 26 26 26 27 27 28 29 29 28 28 28 27 26 24 23 24 26 27 26 26 26 22 19 18 18 20 21 20 20 21 23 24 26 27 27 27 26 25 27 27 30 33 28 28 31 30 28 28 27 28 28 27 26 24 21 22 25 27 25 19 15 13
32 29 27 26 21 17 15 13 12 12 12 13 14 15 18 21 20 20 22 21 20 21 22 24 25 27 26 26 28 28 28 31 31 30 30 30 29 28 27 27 25 23 27 33 30 28 26 22 20 22 21 21 21 21 22 23 24 25 26 27 27 28 27 27 28 28 31 35 30 26 26 26 27 27 25 26 28 26 24 23 21 19 20 24 24 20 16 14
40 33 29 28 24 18 15 14 14 13 14 16 16 18 19 20 19 20 22 21 21 21 23 25 26 27 27 27 29 29 30 33 33 32 31 31 30 29 29 28 26 25 30 34 29 27 25 21 23 25 23 23 22 22 23 23 24 25 25 27 27 27 28 27 30 32 34 37 33 28 27 26 26 26 23 23 24 25 25 24 23 20 17 18 21 20 18 16
55 45 37 33 27 19 15 14 15 15 16 17 19 21 21 21 21 21 22 23 24 22 23 26 27 28 28 28 31 31 32 35 35 35 34 32 32 32 30 29 28 29 30 30 27 25 23 23 25 27 26 24 23 22 23 22 22 24 23 25 27 26 28 29 31 35 36 37 36 33 32 27 25 25 23 22 23 23 23 24 25 25 21 18 18 20 21 18
67 60 51 44 35 24 18 16 16 17 17 19 21 22 23 23 23 23 25 26 26 26 26 27 29 30 29 30 33 32 34 36 37 38 37 34 34 34 33 32 31 30 30 30 30 26 25 28 30 29 27 25 23 23 22 21 20 21 22 24 24 25 30 31 32 34 34 37 39 36 33 25 25 28 24 22 24 23 22 20 21 24 24 22 19 18 19 18
72 68 64 60 48 34 26 22 20 19 19 20 22 23 24 25 25 26 26 25 26 28 30 29 31 31 30 32 34 34 36 39 40 40 39 37 36 37 37 35 32 30 32 35 33 28 28 33 33 30 28 27 25 22 21 21 19 20 21 22 23 25 30 33 33 35 36 38 40 40 38 29 26 32 29 25 27 26 23 20 17 17 19 23 22 18 16 16
74 72 71 71 64 50 42 37 30 25 24 23 23 24 24 25 26 26 25 23 23 28 33 32 32 33 34 36 37 37 38 42 45 42 41 41 40 40 38 37 35 35 38 37 32 30 31 34 34 31 29 29 27 23 22 23 20 21 23 22 24 27 31 33 35 39 41 39 38 42 44 36 30 31 31 31 33 31 27 23 18 16 17 19 21 20 17 15
74 72 70 73 71 61 57 55 47 39 35 33 29 27 26 24 25 26 25 21 20 28 34 34 34 36 40 43 42 40 40 45 49 48 45 45 43 41 38 39 38 39 43 37 29 30 33 34 34 32 31 31 28 24 24 23 21 23 26 26 26 27 30 33 35 40 45 42 38 41 45 44 39 33 31 32 33 31 31 30 25 19 17 15 17 18 17 15
72 71 69 72 72 64 60 61 58 54 51 48 42 36 33 29 28 29 24 18 20 30 36 36 37 38 43 47 47 45 44 47 50 50 49 47 46 44 41 42 40 42 46 38 28 32 35 33 33 33 32 31 28 26 25 24 23 25 29 29 28 28 30 32 36 41 46 44 40 39 42 43 39 32 30 30 29 32 36 37 32 25 20 15 12 13 14 14
73 72 70 73 73 66 61 60 61 60 58 56 50 45 43 39 38 35 26 20 23 30 35 39 41 41 44 48 48 48 48 48 48 50 51 49 49 46 43 46 46 46 49 42 34 36 37 36 37 34 32 30 30 30 28 25 26 29 32 31 30 30 29 31 35 39 45 44 39 38 40 37 33 28 28 27 26 31 35 34 32 31 28 23 16 13 12 12
75 73 72 73 72 68 63 60 61 60 57 54 51 48 47 45 43 40 33 29 29 33 37 40 42 42 44 47 47 49 53 54 52 51 51 50 49 47 45 48 49 48 49 46 42 40 40 41 40 37 34 32 33 34 33 31 32 34 34 32 32 31 29 29 31 37 42 38 33 36 39 36 32 27 26 26 23 23 26 28 30 32 33 31 25 19 15 13
75 74 74 74 73 68 65 62 60 61 59 54 51 50 47 44 42 39 37 35 34 41 44 43 44 44 45 46 45 49 54 57 57 52 49 49 49 48 48 46 46 46 45 43 43 42 42 40 38 39 40 37 35 36 37 36 35 36 36 35 34 30 27 28 31 36 35 28 29 39 41 40 35 26 22 24 23 20 22 24 26 29 31 30 28 25 22 19
77 78 77 77 75 69 67 65 61 62 61 54 52 52 47 43 41 38 39 38 36 43 47 47 49 48 49 48 46 52 55 54 57 56 52 51 50 50 48 44 42 42 40 38 39 39 39 41 40 40 41 40 37 37 38 37 37 37 38 37 34 27 26 27 26 28 26 23 31 41 42 40 34 24 21 24 25 23 21 22 24 28 30 30 29 29 28 27
79 82 80 79 77 72 68 69 68 67 65 60 57 55 49 45 44 40 40 39 40 45 48 52 55 53 52 51 51 57 56 53 57 57 56 57 54 51 51 50 47 42 39 39 39 37 36 40 45 42 40 42 40 36 35 35 36 38 38 37 32 27 30 32 27 24 25 26 30 36 39 37 29 21 20 25 27 25 22 24 27 29 31 31 30 31 30 30
76 80 82 82 81 76 72 73 74 74 71 68 65 59 52 48 47 45 43 44 47 50 51 54 55 52 52 51 54 58 54 53 58 57 57 59 55 53 53 55 54 45 41 44 41 38 35 35 41 43 41 42 42 38 34 34 36 39 40 39 35 31 33 34 30 28 29 31 35 38 37 31 23 18 19 22 26 27 27 29 30 31 31 32 31 31 31 30
76 76 80 82 82 80 76 76 77 77 75 72 67 61 54 48 48 49 50 51 52 52 52 53 52 51 51 50 54 58 52 51 57 57 57 58 56 56 55 56 57 48 43 44 41 42 41 36 40 43 43 44 43 41 39 37 40 42 42 42 39 36 34 34 35 36 39 42 42 40 33 23 17 16 18 20 22 25 29 30 31 32 31 31 30 29 29 29
81 79 76 78 82 81 76 76 80 79 77 75 70 62 55 51 52 52 52 54 54 53 53 52 50 50 49 47 51 57 53 51 58 59 58 60 59 59 59 58 58 51 44 42 41 43 42 40 43 45 44 46 45 44 44 42 42 43 43 43 42 40 38 39 43 45 48 49 42 36 31 23 18 17 18 21 22 24 27 27 27 27 28 28 28 28 28 29
85 83 81 80 82 79 74 77 83 82 79 79 71 61 56 55 56 57 57 58 57 55 53 49 48 48 48 46 49 57 56 53 58 58 57 62 60 59 62 61 58 54 48 45 44 42 39 40 48 47 43 47 48 48 50 48 45 44 44 44 44 45 46 47 48 47 47 46 39 35 33 28 25 20 17 19 21 22 24 24 22 22 24 26 26 27 27 28
87 86 86 83 80 76 74 79 84 84 84 81 69 61 61 59 58 61 64 63 59 56 52 47 46 47 48 46 49 56 57 53 57 58 56 59 57 57 62 62 61 58 53 50 47 45 42 41 49 52 48 50 52 50 51 51 50 49 48 47 46 48 51 52 52 46 43 44 40 37 36 31 26 21 16 16 17 18 22 22 21 19 20 23 25 27 27 27
90 89 85 82 82 78 77 81 83 84 83 76 65 61 64 64 63 65 66 64 61 57 54 50 47 47 48 49 52 58 58 55 59 59 55 56 57 58 61 62 63 61 57 54 49 47 48 43 48 56 52 53 55 52 50 51 52 53 51 52 51 49 50 51 51 47 45 46 45 42 38 29 19 16 15 14 13 15 19 20 21 20 19 21 24 25 25 26
93 92 84 83 85 80 81 85 83 79 73 63 59 61 64 66 69 68 65 65 63 60 57 55 52 51 52 54 56 58 60 59 61 60 56 56 57 58 61 62 65 65 61 58 53 51 52 46 48 58 60 58 55 50 47 48 52 55 54 57 58 54 54 55 54 51 49 49 50 51 46 30 16 14 15 14 13 14 16 17 20 21 20 20 21 24 26 25
95 94 85 83 86 83 84 86 80 75 68 58 55 59 64 68 70 70 68 67 66 64 63 60 58 58 57 58 58 59 64 64 63 62 59 59 60 59 62 64 66 67 62 58 54 52 53 50 51 61 65 59 52 49 49 48 50 53 53 56 56 55 59 60 57 56 56 54 51 52 50 33 17 16 17 15 15 15 15 17 19 21 21 22 24 25 25 24
99 95 85 83 87 87 87 84 79 76 70 60 56 58 65 69 70 72 72 71 69 69 68 66 65 63 62 62 62 64 68 68 67 67 64 64 65 61 63 67 69 67 60 57 57 55 55 54 55 60 60 55 54 57 58 53 52 54 54 55 56 56 58 56 54 56 62 61 54 56 59 40 20 20 20 19 19 17 17 18 19 22 23 24 27 26 24 23
97 93 90 89 89 90 91 86 81 76 68 62 59 59 65 68 67 70 72 71 70 69 69 69 69 67 65 65 68 69 71 71 70 70 68 68 68 65 66 70 71 69 61 56 58 58 58 58 58 58 56 54 58 62 60 57 57 57 54 54 55 55 54 53 54 56 63 65 60 62 64 41 21 22 24 22 23 21 19 18 18 21 22 23 26 26 24 23
97 96 97 96 95 97 94 84 78 76 71 70 69 65 65 66 64 66 69 69 70 69 69 69 68 69 68 68 69 70 72 72 71 71 70 70 69 70 72 73 71 68 62 57 57 58 60 60 60 61 58 55 56 59 62 61 59 56 53 53 54 54 56 60 62 64 66 65 60 62 58 36 22 25 25 23 24 21 18 17 15 17 19 20 23 25 26 25
99 100 99 98 99 100 94 83 78 81 81 80 78 72 68 65 62 63 66 69 70 68 67 68 68 68 69 69 71 73 74 74 75 73 70 71 71 71 74 76 72 67 64 61 59 58 60 61 61 60 56 51 48 51 56 59 59 57 54 53 53 55 58 62 67 72 71 67 64 62 51 33 24 26 25 23 24 21 19 17 15 15 16 17 21 26 30 29
97 98 99 100 101 99 94 88 86 85 83 84 81 74 70 67 62 63 66 66 68 68 66 66 67 68 69 69 73 76 76 75 77 76 74 74 74 71 73 77 75 69 66 64 61 59 62 64 63 60 56 51 47 49 53 55 57 59 57 54 54 55 56 61 69 71 67 66 64 57 49 41 32 28 27 24 22 22 20 18 16 14 14 17 20 27 33 31
97 96 95 94 97 99 96 94 93 86 81 83 80 74 73 72 66 64 65 64 65 66 66 64 64 66 67 70 74 77 77 78 78 77 77 78 76 73 73 77 78 74 72 71 67 63 65 65 63 62 60 55 53 54 55 55 55 56 56 55 55 56 57 62 67 62 59 62 58 49 49 50 40 32 30 25 23 22 21 20 19 16 15 17 21 28 33 30
98 93 88 87 90 94 92 89 88 86 83 84 81 76 77 77 70 65 66 67 67 66 66 64 60 59 63 68 73 75 76 80 80 78 79 80 78 76 73 75 77 76 75 75 70 65 66 66 63 64 64 60 59 60 59 59 57 56 57 56 55 57 59 61 60 56 56 57 52 47 48 47 40 35 30 26 25 25 22 22 23 21 19 18 21 27 30 29
99 96 94 92 90 88 85 82 85 90 89 86 85 82 79 76 70 67 69 72 72 69 66 64 59 58 61 66 72 74 73 76 78 79 82 82 80 78 75 73 74 76 77 76 71 68 68 68 67 68 67 64 65 64 62 62 62 60 62 63 61 61 61 61 59 57 57 55 50 49 47 42 40 36 30 27 28 27 27 27 26 25 23 20 21 25 26 28
97 94 92 94 93 89 88 88 93 96 92 89 89 84 78 76 72 70 71 71 72 72 69 65 61 62 65 67 68 68 67 70 75 78 80 81 80 79 76 73 74 78 79 76 74 72 70 71 72 73 73 70 68 67 66 66 67 67 67 69 69 69 67 65 62 59 59 57 51 49 49 47 43 38 33 32 31 31 33 33 30 27 25 22 20 21 24 26
96 93 91 95 96 93 92 93 95 97 96 96 91 80 75 74 71 72 74 72 71 73 73 72 70 70 72 68 62 60 65 71 75 75 77 79 79 77 75 73 74 78 80 78 78 76 74 74 72 74 78 73 67 69 70 69 71 70 67 68 70 71 68 65 61 57 57 55 50 52 56 53 44 40 38 35 34 37 39 38 35 30 27 24 20 19 20 22
98 98 98 99 97 93 93 94 95 98 95 91 85 79 76 74 73 78 80 73 68 69 73 77 78 76 75 67 60 62 69 73 73 73 74 77 78 77 75 72 72 76 79 80 80 78 77 75 72 75 79 75 70 72 73 73 75 69 63 63 64 64 64 62 58 54 51 47 48 53 54 48 43 44 41 37 38 42 41 40 40 35 31 27 22 18 17 17